This demonstration page uses our WeatherBlox Daily Observations layout. Learn more.

Left ArrowRight Arrow

39.95238, -75.16362

Hourly Observations for April 19, 2015

Temp ( °F °C ) Dew Point ( °F °C ) Humidity (%) Winds ( mph kmh ) Pressure ( in mb ) Visibility ( mi km ) Precip ( " mm )
12:54 am 00:54 Mostly Cloudy 66 18.9 26 -3.3 22 22 N 12 19 30.07 1018 10 16 0.00 0.00
1:54 am 01:54 Mostly Cloudy 65 18.3 25 -3.9 22 22 NNE 15 24 30.07 1018 10 16 0.00 0.00
2:54 am 02:54 Partly Cloudy 63 17.2 25 -3.9 24 24 NE 15 24 30.10 1019 10 16 0.00 0.00
3:54 am 03:54 Mostly Cloudy 62 16.7 22 -5.6 21 21 NE 16 26 30.10 1019 10 16 0.00 0.00
4:54 am 04:54 Mostly Cloudy 59 15 25 -3.9 27 27 NE 9 15 30.12 1020 10 16 0.00 0.00
5:54 am 05:54 Mostly Cloudy 57 13.9 26 -3.3 30 30 ENE 9 15 30.14 1021 10 16 0.00 0.00
6:54 am 06:54 Mostly Cloudy 56 13.3 26 -3.3 32 32 E 15 24 30.18 1022 10 16 0.00 0.00
7:54 am 07:54 Mostly Cloudy 56 13.3 37 2.8 49 49 E 10 17 30.22 1023 10 16 0.00 0.00
8:54 am 08:54 Cloudy 57 13.9 39 3.9 51 51 E 13 20 30.22 1024 10 16 0.00 0.00
9:54 am 09:54 Cloudy 59 15 39 3.9 48 48 E 9 15 30.23 1024 10 16 0.00 0.00
10:54 am 10:54 Mostly Cloudy 61 16.1 40 4.4 46 46 E 14 22 30.24 1024 10 16 0.00 0.00
11:54 am 11:54 Mostly Cloudy 63 17.2 39 3.9 41 41 E 12 19 30.22 1023 10 16 0.00 0.00
12:54 pm 12:54 Mostly Cloudy 65 18.3 38 3.3 37 37 ESE 14 22 30.21 1023 10 16 0.00 0.00
1:54 pm 13:54 Mostly Cloudy 65 18.3 37 2.8 36 36 ESE 14 22 30.18 1022 10 16 0.00 0.00
2:54 pm 14:54 Mostly Cloudy 62 16.7 36 2.2 38 38 ESE 14 22 30.17 1022 10 16 0.00 0.00
3:54 pm 15:54 Mostly Cloudy 60 15.6 35 1.7 39 39 ESE 13 20 30.15 1021 10 16 0.00 0.00
4:54 pm 16:54 Cloudy 58 14.4 35 1.7 42 42 E 15 24 30.16 1021 10 16 0.00 0.00
5:54 pm 17:54 Cloudy 56 13.3 35 1.7 46 46 ESE 12 19 30.18 1022 10 16 0.00 0.00
6:54 pm 18:54 Cloudy 54 12.2 32 0 43 43 E 10 17 30.16 1021 10 16 0.00 0.00
7:54 pm 19:54 Mostly Cloudy 53 11.7 36 2.2 52 52 E 13 20 30.16 1021 10 16 0.00 0.00
8:54 pm 20:54 Mostly Cloudy 51 10.6 36 2.2 56 56 E 13 20 30.15 1021 10 16 0.00 0.00
9:54 pm 21:54 Mostly Cloudy with Light Rain 50 10 39 3.9 66 66 E 14 22 30.12 1020 10 16 0.00 0.03
10:54 pm 22:54 Cloudy with Light Rain 49 9.4 42 5.6 77 77 E 13 20 30.09 1019 10 16 0.00 0.03
11:54 pm 23:54 Cloudy 49 9.4 43 6.1 80 80 ENE 14 22 30.06 1018 10 16 0.00 0.03

Powered by AerisWeather